Location: *
(33.8649°S, 62.1526°E)
Time: 16:06:04
(UTC+00:00)

Cosmos 2173 Rocket - Pass Details

Date: 17 January 2021
Orbit: 946 x 999 km, 83.0° (Epoch: 03 March)

Event Time Altitude Azimuth Distance (km) Brightness Sun altitude
Rises 23:05:31 0° 190° (S) 3,689 7.5 -20.2°
Reaches altitude 10° 23:08:04 10° 193° (SSW) 2,728 6.7 -19.8°
Maximum altitude 23:14:13 64° 272° (W) 1,059 3.9 -18.9°
Enters shadow 23:18:13 22° 348° (NNW) 1,940 5.1 -18.3°
